Погода Столб Остров

Погода Столб Остров : погода сейчас, прогноз погоды и архив. Всё, что Вы хотите узнать о погоде Столб Остров!

Поиск расширенной информации на нашем сайте:

Другие новости

Новости СМИ2

Главная страница сайта

Новости сайта

03.07.2017

Напоминаем, что на нашем специализированном сайте Метеоцентр.Азия вы можете получить высокодетализированные автоматические прогнозы погоды по пунктам России, СНГ и мира в авиационном формате (включающие направление и скорость ветра, видимость, явления погоды, количество и форму облачности, нижнюю и верхнюю границу облачности).


Погода Столб Остров - сегодня

Время (UTC), дата Ветер
(°,м/с) 
Видим.   Явления Облачность Т
(°С)
Тd
(°С)
f(%) Тe
(°С)
Pmin
(гПа)
dP
(гПа)
Po
(мм)
O2
(г/м3)
Тmin Tmax R s Состояние
почвы
06 22.09.17 250 (З) 20000 м    10/10 1000 м 
[Sc]
-0.8 -6.1 67 -3  1016.4  1.2  760  308           
09 22.09.17 220 (ЮЗ) 20000 м    10/10 600 м 
[Sc]
-1.9 -6.5 71 -5  1017.7  1.3  761  310           
12 22.09.17 220 (ЮЗ) 20000 м    10/10 1000 м 
[Sc]
-2.9 -4.9 86 -5  1018.6  0.9  762  311    -0.4       
15 22.09.17 220 (ЮЗ) 20000 м    10/10 1000 м 
[Sc]
-2.5 -5.4 80 -5  1018.9  0.3  762  311           
18 22.09.17 210 (ЮЗ) 20000 м    ясно 
-3.8 -7.9 73 -7  1019.1  0.2  762  312           
21 22.09.17 200 (Ю) 20000 м    10/0 средняя, верхняя 
[Ac trans|Ci fib]
-4.5 -7.6 79 -7  1019.5  0.4  763  313           
00 23.09.17 200 (Ю) 20000 м    4/0 верхняя 
[Ci fib]
-4.8 -8.4 76 -6  1020.4  0.9  763  314  -5        замёрзшая 
03 23.09.17 240 (ЮЗ) 20000 м    4/3 600 м верхняя 
[Sc|Ci fib]
-2 -5.9 75 -5  1020.7  0.3  764  311           
06 23.09.17 230 (ЮЗ) 20000 м    3/3 600 м 
[Sc]
-1.4 -5.8 72 -4  1020.1  -0.6  763  310           
09 23.09.17 230 (ЮЗ) 20000 м    4/4 600 м 
[Sc]
-3.4 -6.2 81 -6  1020.4  0.3  763  312           
12 23.09.17 200 (Ю) 20000 м    4/4 600 м 
[Sc]
-4.6 -7 83 -8  1021.1  0.6  764  314    -1.2       
15 23.09.17 250 (З) 20000 м    10/10 600 м 
[Sc]
-3.5 -5.6 85 -6  1020.4  -0.6  763  312           
18 23.09.17 230 (ЮЗ) 20000 м    ясно 
-4.5 -8.8 72 -8  1020.5  0.1  764  314           
21 23.09.17 260 (З) 20000 м    10/10 600 м 
[Sc]
-4.6 -8.1 76 -8  1020.5  -0.1  763  314           
00 24.09.17 230 (ЮЗ) 20000 м    6/6 600 м 
[Sc]
-4 -5.9 87 -7  1020.2  -0.2  763  313  -4.8        замёрзшая 
03 24.09.17 250 (З) 10 км  слаб. ливневой снег  8/8 600 м кучево-дожд. 
[Cb cap]
-2.4 -4.6 85 -4  1020  -0.2  763  311           
06 24.09.17 250 (З) 20000 м  {ливн. осадки}  9/9 600 м кучево-дожд. 
[Cb cap]
-1.2 -4.5 78 -3  1020    763  309           
09 24.09.17 210 (ЮЗ) 20000 м    10/10 600 м 
[Sc]
-1.2 -6.3 68 -3  1020.4  0.4  763  310           
12 24.09.17 220 (ЮЗ) 20000 м    10/10 600 м кучево-дожд. 
[Cb cap]
-0.8 -3.3 83 -3  1020.7  0.3  764  309    -0.8  0.0     
15 24.09.17 190 (Ю) 20000 м    10/10 600 м кучево-дожд. 
[Cb cap]
-1 -2.6 89 -3  1020.4  -0.3  763  309           
18 24.09.17 180 (Ю) 20000 м    10/10 600 м кучево-дожд. 
[Cb cap]
-1 -2.3 91 -3  1019.8  -0.6  763  309           
21 24.09.17 310 (СЗ) 20000 м    10/10 600 м 
[Sc]
-0.1 -1.8 88 -3  1019.5  -0.3  763  308           
00 25.09.17 350 (С) 20000 м    10/10 600 м 
[Sc]
-0.4 -2.5 86 -1  1018.6  -0.9  762  308  -1.4        замёрзшая 
03 25.09.17 010 (С) 20000 м    10/10 600 м 
[Sc]
-0.4 -2.8 84 -1  1018.1  -0.5  762  308           
06 25.09.17 350 (С) 20000 м    10/10 600 м 
[Sc]
-0.7 -2.6 87 -3  1017.1  -1  761  308           
Время (UTC), дата Ветер
(°,м/с) 
Видим.   Явления Облачность Т
(°С)
Тd
(°С)
f(%) Тe
(°С)
Pmin
(гПа)
dP
(гПа)
Po
(мм)
O2
(г/м3)
Тmin Tmax R s Состояние
почвы

Для получения пояснительной информации подведите курсор к названию столбца.

ПОГОДА Столб Остров - архив

Всё, что Вы хотите узнать о погоде Столб Остров - удобно и подробно!

Выберите нужную дату (начиная с 1 января 2015* года) и нажмите кнопку "Найти".
Будут отображены архивные сводки погоды по пункту Столб Остров, начиная с указанной даты.


Отображать данные в формате CSV (для использования в таблицах Excel)


Внимание! Наш архив погоды предназначен исключительно для личного некоммерческого использования в познавательных целях. Если Вам необходимы официальные справки о состоянии погоды (для производственных, юридических, коммерческих и т.п. целей), обращайтесь в органы Росгидромета.

*Примечание: данная дата относится к архиву по метеостанциям СССР (Россия, СНГ, Балтия).
Архив по метеостанциям Зарубежной Европы и Азии (кроме Китая) хранится 10 дней, по другим регионам земного шара (Китай, Африка, Америка, Австралия, Океания) - 1 день.

Столб Остров - район местоположения метеостанции


Название, широта, долгота, высота метеостанции:
Столб Остров 72.4°ш. 126.5°д. 26 м над ур. моря [Российская Федерация]

Дополнительная информация

В oтличие oт бoльшинства пoгoдных сайтoв мы публикуем пoдрoбную метеoинфoрмацию в детальнoм прoфессиoнальнoм фoрмате.

Характеристики температуры и влажнoсти вoздуха измеряются на высoте 2 м в тени вдали oт зданий и деревьев.
Скoрoсть ветра измеряется на высoте 10 м (на урoвне рoста челoвека скoрoсть ветра ниже в 1.5-2 раза). Если метеoстанция нахoдится в гoрoде или в лесу, тo скoрoсть ветра занижена на 2-4 м/с пo сравнению с oткрытым местoм. Скoрoсть ветра над акватoриями крупных рек и oзёр, а также на вершинах хoлмoв на 2-5 м/с выше, чем в oбычных услoвиях.
Атмoсфернoе давление в разных тoчках местнoсти мoжет значительнo oтличаться oт давления на метеoстанции, в зависимoсти oт услoвий рельефа (при пoдъёме на 10 м давление пoнижается примернo на 1 мм рт.ст.).